FW6302 Weather Reports


time (UTC)temp
F
wind
direction
speed
knots
gust
knots
rain 1hr
in
rain 24hr
in
rain mn
in
humidity
%
barometer
mb
20260507032546 46 214 0.0 0.9 0.00 0.00 0.00 48 1016.5
20260507032044 46 214 0.9 0.9 0.00 0.00 0.00 48 1016.6
20260507031544 47 215 0.0 0.9 0.00 0.00 0.00 48 1016.6
20260507031044 48 215 0.0 0.9 0.00 0.00 0.00 45 1016.6
20260507030544 48 215 0.0 0.9 0.00 0.00 0.00 44 1016.7
20260507030043 49 214 0.0 0.9 0.00 0.00 0.00 44 1016.7
20260507025543 49 214 0.0 0.0 0.00 0.00 0.00 43 1016.7
20260507025042 49 214 0.0 0.9 0.00 0.00 0.00 45 1016.7
20260507024543 49 215 0.0 0.9 0.00 0.00 0.00 43 1016.8
20260507024146 50 214 0.0 0.9 0.00 0.00 0.00 43 1016.7
20260507023543 51 215 0.0 0.9 0.00 0.00 0.00 40 1016.8
20260507023042 52 286 0.0 0.9 0.00 0.00 0.00 41 1016.7
20260507022542 52 286 0.0 0.9 0.00 0.00 0.00 39 1016.7
20260507022044 53 286 0.0 0.9 0.00 0.00 0.00 38 1016.6
20260507021545 53 286 0.0 0.9 0.00 0.00 0.00 36 1016.6
20260507021042 53 290 0.0 1.7 0.00 0.00 0.00 36 1016.6
20260507020541 53 292 0.9 1.7 0.00 0.00 0.00 36 1016.7
20260507020042 53 262 0.9 3.5 0.00 0.00 0.00 36 1016.8
20260507015540 54 278 1.7 3.5 0.00 0.00 0.00 35 1016.8
20260507015040 54 288 1.7 3.5 0.00 0.00 0.00 35 1016.8
20260507014542 54 290 1.7 5.2 0.00 0.00 0.00 35 1016.8
20260507014040 54 273 1.7 5.2 0.00 0.00 0.00 34 1016.8
20260507013542 54 308 0.9 5.2 0.00 0.00 0.00 34 1016.8
20260507013040 54 261 2.6 5.2 0.00 0.00 0.00 34 1016.8
20260507012542 54 283 3.5 4.3 0.00 0.00 0.00 33 1016.8
20260507012039 55 310 1.7 4.3 0.00 0.00 0.00 33 1016.7
20260507011546 55 297 1.7 5.2 0.00 0.00 0.00 33 1016.7
20260507011039 55 283 3.5 6.1 0.00 0.00 0.00 32 1016.7
20260507010539 55 316 4.3 6.1 0.00 0.00 0.00 32 1016.7
20260507010039 55 300 1.7 7.0 0.00 0.00 0.00 33 1016.8
20260507005538 55 306 4.3 10.4 0.00 0.00 0.00 32 1016.7
20260507005041 55 306 4.3 10.4 0.00 0.00 0.00 33 1016.8
20260507004538 55 271 5.2 10.4 0.00 0.00 0.00 32 1016.8
20260507004038 55 262 4.3 10.4 0.00 0.00 0.00 32 1016.7
20260507003539 56 284 6.1 11.3 0.00 0.00 0.00 31 1016.7
20260507003037 56 294 6.1 11.3 0.00 0.00 0.00 32 1016.7
20260507002536 56 285 6.1 10.4 0.00 0.00 0.00 31 1016.7
20260507002036 56 285 3.5 13.0 0.00 0.00 0.00 32 1016.8
20260507001547 56 274 7.0 13.0 0.00 0.00 0.00 31 1016.7
20260507001035 56 286 5.2 10.4 0.00 0.00 0.00 32 1016.8
20260507000537 56 295 4.3 12.2 0.00 0.00 0.00 31 1016.8
20260507000036 56 292 7.8 13.0 0.00 0.00 0.00 31 1016.9
20260506235535 56 313 8.7 13.0 0.00 0.00 0.00 30 1016.9
20260506235036 56 275 4.3 13.9 0.00 0.00 0.00 31 1017.0
20260506234542 56 290 7.8 13.9 0.00 0.00 0.00 31 1016.9
20260506234033 56 229 5.2 13.0 0.00 0.00 0.00 31 1016.9
20260506233533 56 293 7.0 13.0 0.00 0.00 0.00 31 1016.9
20260506233034 56 299 6.1 12.2 0.00 0.00 0.00 32 1017.0
20260506232532 56 274 4.3 8.7 0.00 0.00 0.00 32 1017.0
20260506232032 56 283 6.1 9.6 0.00 0.00 0.00 32 1017.1
20260506231536 56 278 4.3 16.5 0.00 0.00 0.00 33 1017.2
20260506231032 56 314 7.8 16.5 0.00 0.00 0.00 32 1017.2
20260506230532 56 273 5.2 12.2 0.00 0.00 0.00 31 1017.2
20260506230031 56 277 5.2 12.2 0.00 0.00 0.00 32 1017.2
20260506225531 56 289 7.0 13.9 0.00 0.00 0.00 31 1017.3
20260506225030 56 295 8.7 13.9 0.00 0.00 0.00 32 1017.3
20260506224531 56 245 8.7 13.0 0.00 0.00 0.00 31 1017.3
20260506224029 56 321 6.1 13.0 0.00 0.00 0.00 32 1017.3
20260506223529 56 328 7.8 13.0 0.00 0.00 0.00 32 1017.3
20260506223028 56 295 6.1 13.9 0.00 0.00 0.00 32 1017.4
20260506222529 56 272 7.8 13.9 0.00 0.00 0.00 31 1017.4
20260506222030 56 283 6.1 15.6 0.00 0.00 0.00 32 1017.5
20260506221528 56 271 9.6 15.6 0.00 0.00 0.00 31 1017.6
20260506221028 56 314 8.7 14.8 0.00 0.00 0.00 32 1017.6
20260506220530 56 300 7.0 12.2 0.00 0.00 0.00 32 1017.6
20260506220027 56 265 5.2 14.8 0.00 0.00 0.00 32 1017.6
20260506215526 56 303 6.1 14.8 0.00 0.00 0.00 33 1017.6
20260506215026 55 286 8.7 15.6 0.00 0.00 0.00 32 1017.7
20260506214526 56 323 7.8 15.6 0.00 0.00 0.00 33 1017.7
20260506214026 56 349 8.7 20.0 0.00 0.00 0.00 33 1017.8
20260506213528 56 281 13.0 20.0 0.00 0.00 0.00 31 1017.8
20260506213025 56 284 7.0 13.0 0.00 0.00 0.00 32 1017.9
20260506212529 56 248 3.5 12.2 0.00 0.00 0.00 33 1018.0
20260506212025 55 299 7.0 16.5 0.00 0.00 0.00 32 1018.0
20260506211525 55 266 7.0 15.6 0.00 0.00 0.00 33 1018.1
20260506211025 55 289 6.1 12.2 0.00 0.00 0.00 34 1018.1
20260506210527 55 281 7.0 15.6 0.00 0.00 0.00 33 1018.2
20260506210024 55 285 7.8 18.2 0.00 0.00 0.00 33 1018.3
20260506205523 55 259 13.0 18.2 0.00 0.00 0.00 32 1018.3
20260506205023 56 291 7.0 18.2 0.00 0.00 0.00 33 1018.4
20260506204522 56 293 12.2 18.2 0.00 0.00 0.00 33 1018.6
20260506204022 55 343 7.0 16.5 0.00 0.00 0.00 33 1018.5
20260506203521 55 326 7.0 16.5 0.00 0.00 0.00 34 1018.7
20260506203025 55 311 7.8 13.9 0.00 0.00 0.00 33 1018.8
20260506202521 55 280 9.6 19.1 0.00 0.00 0.00 33 1018.7
20260506202021 55 285 10.4 19.1 0.00 0.00 0.00 33 1018.8
20260506201620 54 294 5.2 14.8 0.00 0.00 0.00 35 1018.8
20260506201018 54 330 8.7 16.5 0.00 0.00 0.00 35 1018.9
20260506200516 54 320 7.8 13.9 0.00 0.00 0.00 35 1019.0
20260506200019 54 303 7.8 13.9 0.00 0.00 0.00 34 1019.1
20260506195515 54 328 5.2 13.0 0.00 0.00 0.00 36 1019.2
20260506195015 53 285 7.0 16.5 0.00 0.00 0.00 35 1019.3
20260506194515 53 288 12.2 16.5 0.00 0.00 0.00 35 1019.3
20260506194015 53 286 4.3 10.4 0.00 0.00 0.00 37 1019.3
20260506193513 53 298 6.1 11.3 0.00 0.00 0.00 38 1019.4
20260506193014 53 280 7.0 17.4 0.00 0.00 0.00 38 1019.5
20260506192513 53 297 8.7 17.4 0.00 0.00 0.00 36 1019.6
20260506192014 53 305 7.0 16.5 0.00 0.00 0.00 37 1019.6
20260506191516 53 323 7.8 19.1 0.00 0.00 0.00 36 1019.6
20260506191013 53 18 10.4 16.5 0.00 0.00 0.00 36 1019.5
20260506190511 53 319 8.7 14.8 0.00 0.00 0.00 37 1019.6
20260506190011 53 277 7.8 17.4 0.00 0.00 0.00 37 1019.8
20260506185510 53 273 8.7 17.4 0.00 0.00 0.00 36 1019.8
20260506185011 52 283 7.0 17.4 0.00 0.00 0.00 37 1019.9
20260506184510 52 295 9.6 18.2 0.00 0.00 0.00 37 1020.0
20260506184011 53 310 8.7 18.2 0.00 0.00 0.00 37 1020.0
20260506183510 52 271 7.0 17.4 0.00 0.00 0.00 37 1020.0
20260506183012 52 279 7.8 17.4 0.00 0.00 0.00 39 1020.1
20260506182508 52 278 10.4 16.5 0.00 0.00 0.00 37 1020.1
20260506182012 52 318 10.4 16.5 0.00 0.00 0.00 37 1020.1
20260506181507 53 283 5.2 14.8 0.00 0.00 0.00 38 1020.3
20260506181008 52 281 7.8 14.8 0.00 0.00 0.00 38 1020.3
20260506180505 52 28 3.5 18.2 0.00 0.00 0.00 41 1020.4
20260506180004 51 293 9.6 20.9 0.00 0.00 0.00 38 1020.5
20260506175503 52 295 12.2 20.9 0.00 0.00 0.00 37 1020.5
20260506175003 52 284 9.6 17.4 0.00 0.00 0.00 38 1020.6
20260506174502 51 278 7.8 16.5 0.00 0.00 0.00 38 1020.6
20260506174003 51 285 7.0 16.5 0.00 0.00 0.00 38 1020.6
20260506173600 51 352 7.0 19.1 0.00 0.00 0.00 38 1020.5
20260506173100 51 313 9.6 19.1 0.00 0.00 0.00 39 1020.6
20260506172559 50 311 8.7 19.1 0.00 0.00 0.00 38 1020.6
20260506172059 50 322 7.8 17.4 0.00 0.00 0.00 39 1020.6
20260506171610 50 304 8.7 15.6 0.00 0.00 0.00 40 1020.6
20260506171058 50 338 7.8 16.5 0.00 0.00 0.00 40 1020.7
20260506170558 49 344 8.7 17.4 0.00 0.00 0.00 39 1020.6
20260506170103 50 269 9.6 18.2 0.00 0.00 0.00 39 1020.6
20260506165600 50 287 7.0 18.2 0.00 0.00 0.00 39 1020.7
20260506165056 50 289 7.0 13.0 0.00 0.00 0.00 40 1020.7
20260506164600 50 312 4.3 13.9 0.00 0.00 0.00 40 1020.7
20260506164054 50 283 4.3 13.0 0.00 0.00 0.00 43 1020.8
20260506163553 49 255 7.8 13.0 0.00 0.00 0.00 42 1020.9
20260506163112 48 324 7.8 13.9 0.00 0.00 0.00 43 1020.9
20260506162553 48 315 8.7 16.5 0.00 0.00 0.00 43 1020.8
20260506162053 48 316 6.1 17.4 0.00 0.00 0.00 42 1021.0
20260506161552 49 6 10.4 17.4 0.00 0.00 0.00 42 1020.8
20260506161051 49 342 8.7 14.8 0.00 0.00 0.00 42 1020.9
20260506160551 48 276 8.7 14.8 0.00 0.00 0.00 43 1020.9
20260506160051 48 320 8.7 15.6 0.00 0.00 0.00 43 1020.8
20260506155548 48 287 8.7 16.5 0.00 0.00 0.00 40 1020.8
20260506155048 48 278 7.0 16.5 0.00 0.00 0.00 43 1020.9
20260506154552 48 342 9.6 20.0 0.00 0.00 0.00 42 1020.8
20260506154048 48 290 10.4 20.0 0.00 0.00 0.00 42 1020.9
20260506153544 48 293 7.0 16.5 0.00 0.00 0.00 44 1020.9
20260506153044 47 307 8.7 16.5 0.00 0.00 0.00 43 1020.9
20260506152545 47 312 7.0 15.6 0.00 0.00 0.00 45 1020.9
20260506152043 48 319 7.8 13.9 0.00 0.00 0.00 46 1020.9
20260506151543 47 335 6.1 15.6 0.00 0.00 0.00 47 1021.0
20260506151042 47 298 7.8 15.6 0.00 0.00 0.00 47 1020.9
20260506150541 46 329 5.2 13.9 0.00 0.00 0.00 49 1020.9
20260506150039 46 304 7.0 13.9 0.00 0.00 0.00 49 1020.8
20260506145537 46 309 2.6 10.4 0.00 0.00 0.00 53 1020.8
20260506145037 46 303 6.1 13.0 0.00 0.00 0.00 52 1021.1
20260506144537 46 288 7.0 13.0 0.00 0.00 0.00 52 1021.1
20260506144036 46 274 2.6 11.3 0.00 0.00 0.00 53 1021.1
20260506143535 45 278 3.5 11.3 0.00 0.00 0.00 53 1021.1
20260506143036 44 290 6.1 10.4 0.00 0.00 0.00 53 1021.2
20260506142533 44 245 6.1 9.6 0.00 0.00 0.00 56 1021.2
20260506142032 44 304 1.7 6.1 0.00 0.00 0.00 58 1021.2
20260506141530 43 257 0.0 7.0 0.00 0.00 0.00 60 1021.2
20260506141029 42 311 2.6 7.0 0.00 0.00 0.00 59 1021.3
20260506140528 42 281 4.3 7.0 0.00 0.00 0.00 60 1021.2
20260506140030 42 290 3.5 6.1 0.00 0.00 0.00 61 1021.3
20260506135529 41 271 1.7 4.3 0.00 0.00 0.00 62 1021.3
20260506135029 41 277 1.7 5.2 0.00 0.00 0.00 62 1021.2
20260506134523 41 285 1.7 5.2 0.00 0.00 0.00 64 1021.1
20260506134022 40 275 2.6 5.2 0.00 0.00 0.00 64 1021.1
20260506133522 40 281 2.6 6.1 0.00 0.00 0.00 64 1021.1
20260506133021 39 317 2.6 6.1 0.00 0.00 0.00 65 1021.1
20260506132522 39 27 3.5 7.0 0.00 0.00 0.00 66 1021.1
20260506132020 38 331 4.3 7.0 0.00 0.00 0.00 66 1021.1
20260506131521 38 313 1.7 4.3 0.00 0.00 0.00 68 1021.0
20260506131020 37 287 1.7 4.3 0.00 0.00 0.00 68 1021.0
20260506130520 37 288 2.6 4.3 0.00 0.00 0.00 68 1020.9
20260506130022 36 308 0.9 3.5 0.00 0.00 0.00 69 1021.0
20260506125518 36 274 1.7 3.5 0.00 0.00 0.00 69 1020.9
20260506125018 36 274 0.9 3.5 0.00 0.00 0.00 69 1020.9
20260506124518 35 290 1.7 3.5 0.00 0.00 0.00 69 1020.8
20260506124019 35 226 0.0 0.9 0.00 0.00 0.00 71 1020.8
20260506123520 35 226 0.0 0.9 0.00 0.00 0.00 73 1020.7
20260506123018 33 222 0.0 0.0 0.00 0.00 0.00 73 1020.7
20260506122515 33 222 0.0 0.9 0.00 0.00 0.00 75 1020.6
20260506122017 32 222 0.0 0.9 0.00 0.00 0.00 75 1020.7
20260506121515 31 222 0.0 0.9 0.00 0.00 0.00 75 1020.6
20260506121016 31 222 0.0 2.6 0.00 0.00 0.00 75 1020.4
20260506120514 31 222 0.9 2.6 0.00 0.00 0.00 73 1020.4
20260506120013 32 178 0.9 1.7 0.00 0.00 0.00 73 1020.2
20260506115513 31 236 0.0 0.9 0.00 0.00 0.00 75 1020.2
20260506115013 31 235 0.0 2.6 0.00 0.00 0.00 74 1020.2
20260506114512 30 235 0.9 2.6 0.00 0.00 0.00 75 1020.1
20260506114011 30 232 1.7 2.6 0.00 0.00 0.00 75 1019.9
20260506113510 30 210 0.9 2.6 0.00 0.00 0.00 76 1019.9
20260506113009 29 342 0.9 1.7 0.00 0.00 0.00 76 1019.8
20260506112509 29 342 0.0 0.0 0.00 0.00 0.00 76 1019.7
20260506112006 30 342 0.0 0.0 0.00 0.00 0.00 76 1019.7
20260506111506 30 342 0.0 0.0 0.00 0.00 0.00 74 1019.6
20260506111005 31 342 0.0 0.9 0.00 0.00 0.00 75 1019.4
20260506110505 30 342 0.0 0.9 0.00 0.00 0.00 75 1019.2
20260506110007 31 342 0.0 0.9 0.00 0.00 0.00 75 1019.2
20260506105503 31 342 0.9 1.7 0.00 0.00 0.00 72 1019.2
20260506105006 33 342 0.0 2.6 0.00 0.00 0.00 71 1019.2
20260506104503 33 342 0.0 2.6 0.00 0.00 0.00 71 1019.1
20260506104002 33 342 0.9 2.6 0.00 0.00 0.00 71 1019.1
20260506103502 33 326 0.9 3.5 0.00 0.00 0.00 71 1019.0
20260506103003 33 333 1.7 3.5 0.00 0.00 0.00 70 1019.1
20260506102503 33 349 1.7 3.5 0.00 0.00 0.00 70 1019.1
20260506102002 33 331 1.7 5.2 0.00 0.00 0.00 70 1019.3
20260506101503 33 331 2.6 5.2 0.00 0.00 0.00 69 1019.3
20260506101001 33 321 2.6 5.2 0.00 0.00 0.00 71 1019.3
20260506100600 33 317 3.5 5.2 0.00 0.00 0.00 72 1019.3
20260506100100 32 351 1.7 2.6 0.00 0.00 0.00 73 1019.3
20260506095558 32 246 0.9 1.7 0.00 0.00 0.00 75 1019.1
20260506095100 31 246 0.0 0.9 0.00 0.00 0.00 74 1019.1
20260506094600 32 246 0.0 1.7 0.00 0.00 0.00 73 1019.0
20260506094057 32 246 0.9 1.7 0.00 0.00 0.00 74 1019.1
20260506093556 32 246 0.0 1.7 0.00 0.00 0.00 76 1019.1
20260506093059 31 281 0.0 0.0 0.00 0.00 0.00 75 1018.9
20260506092555 31 281 0.0 0.0 0.00 0.00 0.00 74 1018.7
20260506092055 31 281 0.0 0.0 0.00 0.00 0.00 74 1018.7
20260506091555 32 281 0.0 0.0 0.00 0.00 0.00 73 1018.7
20260506091057 32 281 0.0 0.0 0.00 0.00 0.00 73 1018.5
20260506090655 32 281 0.0 0.0 0.00 0.00 0.00 73 1018.6
20260506090105 32 281 0.0 0.0 0.00 0.00 0.00 72 1018.8
20260506085553 33 281 0.0 0.9 0.00 0.00 0.00 71 1018.7
20260506085055 33 281 0.0 1.7 0.00 0.00 0.00 71 1018.7
20260506084609 34 281 0.0 1.7 0.00 0.00 0.00 70 1018.6
20260506084051 34 275 0.9 1.7 0.00 0.00 0.00 71 1018.5
20260506083551 33 304 0.0 2.6 0.00 0.00 0.00 74 1018.6
20260506083053 31 267 0.0 0.9 0.00 0.00 0.00 76 1018.4
20260506082549 31 267 0.0 0.0 0.00 0.00 0.00 74 1018.3
20260506082048 32 267 0.0 0.0 0.00 0.00 0.00 74 1018.4
20260506081549 32 267 0.0 0.0 0.00 0.00 0.00 73 1018.3
20260506081049 32 267 0.0 0.0 0.00 0.00 0.00 73 1018.2
20260506080546 32 267 0.0 0.0 0.00 0.00 0.00 73 1018.1
20260506073040 34 110 0.0 0.0 0.00 0.00 0.00 70 1017.8
20260506072539 34 110 0.0 0.9 0.00 0.00 0.00 68 1017.7
20260506072037 35 110 0.0 1.7 0.00 0.00 0.00 66 1017.8
20260506071538 35 110 0.0 2.6 0.00 0.00 0.00 65 1017.9
20260506071037 36 91 1.7 2.6 0.00 0.00 0.00 65 1017.9
20260506070535 37 326 0.0 0.0 0.00 0.00 0.00 65 1018.1
20260506062025 39 314 0.9 1.7 0.00 0.00 0.00 58 1018.2
20260506061527 39 303 0.0 0.0 0.00 0.00 0.00 58 1018.2
20260506061026 39 303 0.0 0.0 0.00 0.00 0.00 58 1018.1
20260506060523 39 304 0.0 0.0 0.00 0.00 0.00 58 1018.0
20260506051014 40 345 0.0 0.0 0.00 0.00 0.00 58 1017.3
20260506050514 40 345 0.0 1.7 0.00 0.00 0.00 58 1017.3
20260506045013 40 319 0.9 2.6 0.00 0.00 0.00 57 1017.2
20260506044516 41 329 0.9 2.6 0.00 0.00 0.00 57 1017.2
20260506044011 41 331 0.9 2.6 0.00 0.00 0.00 56 1017.3
20260506043511 41 330 0.9 1.7 0.00 0.00 0.00 55 1017.3
20260506043011 41 330 0.9 1.7 0.00 0.00 0.00 55 1017.3
20260506042511 41 315 0.0 1.7 0.00 0.00 0.00 54 1017.3
20260506042010 42 327 0.9 2.6 0.00 0.00 0.00 53 1017.2
20260506041514 42 302 0.9 2.6 0.00 0.00 0.00 52 1017.3
20260506041010 42 311 1.7 3.5 0.00 0.00 0.00 52 1017.2
20260506040612 42 309 1.7 3.5 0.00 0.00 0.00 52 1017.3
20260506040010 42 304 1.7 3.5 0.00 0.00 0.00 51 1017.3
20260506035514 42 329 1.7 5.2 0.00 0.00 0.00 51 1017.3
20260506035010 43 319 2.6 5.2 0.00 0.00 0.00 50 1017.3
20260506034510 43 331 3.5 6.1 0.00 0.00 0.00 51 1017.4
20260506034011 43 307 1.7 5.2 0.00 0.00 0.00 50 1017.2
20260506033511 43 335 2.6 6.1 0.00 0.00 0.00 49 1017.2
20260506033008 44 332 2.6 7.0 0.00 0.00 0.00 49 1017.1